FW7611 Weather Reports


time (UTC)temp
C
wind
direction
speed
KPH
gust
KPH
rain 1hr
cm
rain 24hr
cm
rain mn
cm
humidity
%
barometer
mb
20260504150111 19 248 1.6 4.8 0.00 0.00 0.00 41 1018.7
20260504081537 6 0 0.0 0.0 0.00 0.00 0.00 84 1018.2
20260504044541 8 0 0.0 0.0 0.00 0.00 0.00 68 1018.4
20260504043040 8 0 0.0 0.0 0.00 0.00 0.00 67 1018.3
20260504041535 8 0 0.0 0.0 0.00 0.00 0.00 68 1018.1
20260504040107 8 0 0.0 0.0 0.00 0.00 0.00 67 1018.1
20260504034541 9 0 0.0 0.0 0.00 0.00 0.00 67 1018.2
20260504033041 9 0 0.0 3.2 0.00 0.00 0.00 67 1018.2
20260504031539 9 0 0.0 3.2 0.00 0.00 0.00 65 1018.1
20260504030036 10 0 0.0 0.0 0.00 0.00 0.00 62 1018.2
20260504024548 10 0 0.0 0.0 0.00 0.00 0.00 60 1018.3
20260504023040 10 0 0.0 0.0 0.00 0.00 0.00 60 1018.2
20260504021540 10 0 0.0 1.6 0.00 0.00 0.00 62 1018.0
20260504020040 10 0 0.0 0.0 0.00 0.00 0.00 59 1017.7
20260504014551 10 0 0.0 3.2 0.00 0.00 0.00 61 1017.5
20260504013036 11 185 0.0 3.2 0.00 0.00 0.00 57 1017.3
20260504011534 11 0 0.0 0.0 0.00 0.00 0.00 57 1017.2
20260504010034 11 0 0.0 0.0 0.00 0.00 0.00 56 1017.1
20260504004542 12 0 0.0 0.0 0.00 0.00 0.00 53 1017.0
20260504003040 12 0 0.0 3.2 0.00 0.00 0.00 52 1016.8
20260504001555 13 0 0.0 0.0 0.00 0.00 0.00 51 1016.7
20260504000039 14 0 0.0 3.2 0.00 0.00 0.00 48 1016.6
20260503234536 15 0 0.0 3.2 0.00 0.00 0.00 44 1016.6
20260503233033 16 211 1.6 4.8 0.00 0.00 0.00 35 1016.7
20260503231535 17 168 0.0 6.4 0.00 0.00 0.00 33 1016.7
20260503230041 17 209 0.0 3.2 0.00 0.00 0.00 32 1016.7
20260503224531 17 240 1.6 9.7 0.00 0.00 0.00 32 1016.9
20260503223036 17 258 3.2 9.7 0.00 0.00 0.00 32 1017.0
20260503221536 17 215 1.6 9.7 0.00 0.00 0.00 31 1017.0
20260503220043 17 262 0.0 11.3 0.00 0.00 0.00 30 1017.2
20260503214541 17 190 1.6 4.8 0.00 0.00 0.00 31 1017.5
20260503213038 17 234 0.0 3.2 0.00 0.00 0.00 30 1017.7
20260503211541 17 296 3.2 9.7 0.00 0.00 0.00 28 1017.7
20260503210037 17 223 1.6 8.0 0.00 0.00 0.00 27 1017.7
20260503204540 17 311 3.2 9.7 0.00 0.00 0.00 25 1017.9
20260503203046 17 211 1.6 11.3 0.00 0.00 0.00 26 1018.0
20260503201541 17 22 0.0 3.2 0.00 0.00 0.00 28 1018.3
20260503200042 17 340 1.6 14.5 0.00 0.00 0.00 27 1018.6
20260503194542 17 330 1.6 9.7 0.00 0.00 0.00 27 1018.7
20260503193042 17 206 4.8 16.1 0.00 0.00 0.00 28 1018.7
20260503191535 17 276 1.6 11.3 0.00 0.00 0.00 29 1018.8
20260503190045 16 311 3.2 9.7 0.00 0.00 0.00 27 1019.1
20260503184541 16 275 3.2 6.4 0.00 0.00 0.00 30 1019.4
20260503183053 16 279 3.2 11.3 0.00 0.00 0.00 32 1019.5
20260503181554 16 257 1.6 3.2 0.00 0.00 0.00 28 1019.8
20260503180041 16 243 1.6 6.4 0.00 0.00 0.00 29 1020.0
20260503174537 16 133 3.2 11.3 0.00 0.00 0.00 29 1020.1
20260503173035 15 273 1.6 6.4 0.00 0.00 0.00 28 1020.3
20260503171540 16 144 1.6 4.8 0.00 0.00 0.00 29 1020.3